Regional Weather Roundup
Issued by NWS

Home | Current Version | Previous Version | Graphics & Text | Print | Product List | Glossary On
Versions: 1 2 3 4 5 6 7 8 9 10 11 12 13 14 15 16 17 18 19 20 21 22 23 24 25 26 27 28 29 30 31 32 33 34 35 36 37 38 39 40 41 42 43 44 45 46 47 48 49 50
000
ASUS43 KMPX 270410
RWRMN
WEATHER ROUNDUP FOR MINNESOTA
NATIONAL WEATHER SERVICE TWIN CITIES/CHANHASSEN MN
1000 PM CST SUN FEB 26 2017


NOTE: "FAIR" INDICATES FEW OR NO CLOUDS BELOW 12,000 FEET WITH NO
SIGNIFICANT WEATHER AND/OR OBSTRUCTIONS TO VISIBILITY. N/A MEANS
CURRENT SKY AND/OR WEATHER CONDITIONS ARE NOT AVAILABLE.

MNZ060>063-068>070-270500-
   Twin Cities Metro

CITY           SKY/WX    TMP DP  RH WIND       PRES   REMARKS
TWIN CITIES    CLOUDY    30  14  51 CALM      29.96R
ST PAUL        CLOUDY    30  14  51 SW3       29.97R
CRYSTAL        CLOUDY    27  17  66 CALM      29.94R
BLAINE         CLOUDY    28  18  64 CALM      29.95S
LAKEVILLE        N/A     28  21  74 CALM      29.95S
EDEN PRAIRIE   CLOUDY    30  18  60 CALM      29.94S
SOUTH ST PAUL  CLOUDY    31  17  57 CALM      29.96R
LAKE ELMO      CLOUDY    28  19  69 CALM      29.97R
$$
MNZ001>005-007-008-013>017-022>024-027-028-270500-
   Northwest Minnesota

CITY           SKY/WX    TMP DP  RH WIND       PRES   REMARKS
BEMIDJI        FAIR       8   3  82 CALM      29.87S
HALLOCK        CLOUDY    14  10  85 S7        29.87S WCI   4
ROSEAU         CLOUDY    12   7  79 SW8       29.86R WCI   1
WARROAD        FAIR      10   5  79 SW7       29.86S WCI   0
THIEF RVR FALL FAIR       9   5  84 S5        29.89S WCI   1
CROOKSTON      FAIR       9   7  92 S3        29.92R
FOSSTON        FAIR       7   3  85 S6        29.89R WCI  -3
DETROIT LAKES  CLOUDY    18  12  79 CALM      29.89S
MOORHEAD       CLOUDY    18  10  73 SE5       29.92R WCI  11
PARK RAPIDS    FAIR      10   2  69 CALM      29.87R
MAHNOMEN       FAIR      14  10  86 S3        29.88R
$$
MNZ006-009>011-018-025>026-270500-
   North Central Minnesota

CITY           SKY/WX    TMP DP  RH WIND       PRES   REMARKS
BAUDETTE       FAIR       9   2  73 SW5       29.85R WCI   1
FLAG ISLAND    CLOUDY    12   7  79 SW13      29.83S WCI  -3
INTL FALLS     FAIR      11   2  67 SW6       29.86R WCI   1
WASKISH        FAIR       9   3  78 SW6       29.88R WCI  -1
BIG FORK       FAIR       1  -2  85 CALM      29.88R
LONGVILLE      FAIR       5   1  85 CALM      29.89R
GRAND RAPIDS   FAIR       4  -1  80 CALM      29.90R
CRANE LAKE     FAIR      -2  -6  84 CALM      29.89S
ORR            FAIR      10  -2  56 CALM      29.85R
COOK           FAIR       5   0  78 CALM      29.88R
WALKER         FAIR      11   2  68 CALM      29.88R
$$
MNZ012-019>021-037-270500-
   Northeast Minnesota

CITY           SKY/WX    TMP DP  RH WIND       PRES   REMARKS
DULUTH         FAIR      11   0  61 CALM      29.88R
ELY            FAIR       0  -6  78 CALM      29.87R
HIBBING        FAIR       1  -5  75 CALM      29.88R
EVELETH        FAIR       2  -3  78 CALM      29.89R
DULUTH HARBOR  FAIR      16   3  57 CALM      29.95S
TWO HARBORS    FAIR      10   1  67 CALM      29.89S
SILVER BAY     FAIR       7   1  78 CALM      29.89S
GRAND MARAIS     N/A     17   1  49 CALM      29.93R
G MARAIS ARPRT FAIR       3  -6  66 W3        29.84R
$$
MNZ029>031-032-039>041-046>048-054>057-064-270500-
   West Central Minnesota

CITY           SKY/WX    TMP DP  RH WIND       PRES   REMARKS
FERGUS FALLS   CLOUDY    18  10  73 CALM      29.96R
WHEATON        CLOUDY    21  16  79 SE7       29.93S WCI  13
MORRIS         CLOUDY    23  18  80 SE6       29.90S WCI  16
ALEXANDRIA     CLOUDY    21  12  68 S6        29.90R WCI  13
ELBOW LAKE     CLOUDY    16  11  82 S5        29.91R WCI   8
WADENA         CLOUDY    10   9  92 CALM      29.88S
GLENWOOD       CLOUDY    21  16  79 CALM      29.90R
APPLETON       CLOUDY    27  18  69 E5        29.91R WCI  21
BENSON         CLOUDY    27  12  54 CALM      29.93R
ORTONVILLE       N/A     23  16  74 CALM      29.90S
MADISON        CLOUDY   N/A N/A N/A SE6       29.90F
WILLMAR        MOCLDY    25  19  80 SE3       29.92S
$$
MNZ033>034-036-042>043-049>051-058-059-270500-
   Central Minnesota

CITY           SKY/WX    TMP DP  RH WIND       PRES   REMARKS
ST CLOUD       MOCLDY    24  16  71 S3        29.93R
SAUK CENTRE    CLOUDY    22  15  74 S3        29.91R
PAYNESVILLE    CLOUDY    23  15  72 CALM      29.92S
AITKIN         FAIR       9   3  78 CALM      29.89S
PINE RIVER     FAIR       7   3  85 CALM      29.93R
BRAINERD       FAIR       9   4  80 CALM      29.90S
STAPLES        CLOUDY    12   7  79 CALM      29.89S
LONG PRAIRIE   CLOUDY    19  10  68 CALM      29.90R
LITTLE FALLS   MOCLDY    19  12  73 CALM      29.92R
LITCHFIELD     CLOUDY    25  19  80 CALM      29.93R
BUFFALO        CLOUDY    26  15  62 CALM      29.95S
MAPLE LAKE     CLOUDY    26  19  75 CALM      29.94S
HUTCHINSON     MOCLDY    28  22  80 CALM      29.95R
$$
MNZ037-044-045-052-053-270500-
   East Central Minnesota

CITY           SKY/WX    TMP DP  RH WIND       PRES   REMARKS
PRINCETON      CLOUDY    27  16  63 CALM      29.93R
MORA           FAIR      18  12  79 CALM      29.93F
CAMBRIDGE      CLOUDY    27  12  54 CALM      29.92S
RUSH CITY      MOCLDY    18  10  73 SE3       29.95R
MOOSE LAKE     FAIR       9   1  72 CALM      29.90S
HINCKLEY       FAIR      18  12  79 CALM      29.93S
CLOQUET        FAIR       3   0  85 CALM      29.89S
MCGREGOR       FAIR       5   1  85 CALM      29.91R
$$
MNZ071>073-080-081-089-090-097-098-270500-
   Southwest Minnesota

CITY           SKY/WX    TMP DP  RH WIND       PRES   REMARKS
MONTEVIDEO     MOCLDY    27  21  80 SE9       29.92S WCI  17
GRANITE FALLS  FAIR      28  22  80 E5        29.92F WCI  22
CANBY          FAIR      27  23  84 CALM      29.90S
MARSHALL       FAIR      27  21  78 SE8       29.90F WCI  19
REDWOOD FALLS  FAIR      28  19  69 SE6       29.92S WCI  22
OLIVIA         FAIR      28  21  74 SE6       29.92S WCI  22
PIPESTONE      FAIR      28  23  80 SW13      29.88R WCI  18
WINDOM         FAIR      27  25  93 S5        29.93R WCI  21
WORTHINGTON    FAIR      28  24  85 S14       29.93R WCI  17
JACKSON        FAIR      27  23  86 S8        29.94R WCI  18
TRACY          FAIR      30  26  85 SW9       29.90S WCI  22
SLAYTON        FAIR      29  26  87 S14       29.90S WCI  18
$$
MNZ065>067-074>077-082>085-091>093-270500-
   South Central Minnesota

CITY           SKY/WX    TMP DP  RH WIND       PRES   REMARKS
MANKATO          N/A     27  24  89 S7        29.95F WCI  19
NEW ULM        FAIR      27  19  74 SE3       29.94S
ST JAMES       FAIR      28  27  93 CALM      29.96R
FAIRMONT       FAIR      24  21  88 SW13      29.96R WCI  12
GLENCOE        CLOUDY    29  25  84 CALM      29.94R
FARIBAULT      FAIR      27  25  93 S6        29.96S WCI  20
OWATONNA       FAIR      21  19  93 S5        29.96S WCI  15
WASECA         MOCLDY    21  19  93 S5        29.97S WCI  15
ALBERT LEA     FAIR      25  21  86 SW6       29.97R WCI  18
$$
MNZ078>079-086>088-094>096-270500-
   Southeast Minnesota

CITY           SKY/WX    TMP DP  RH WIND       PRES   REMARKS
ROCHESTER      FAIR      17  16  95 S10       29.97R WCI   5
RED WING       CLOUDY    25  18  74 CALM      29.97R
STANTON        CLOUDY    29  22  75 S3        29.95S
WINONA         FAIR      30  25  80 CALM      30.00S
AUSTIN         FAIR      12  10  92 CALM      29.98R
PRESTON        FAIR      22  19  88 SW8       29.98S WCI  12
$$
ABBREVIATIONS USED IN REMARKS
   TC - TEMPERATURES IN CELSIUS
  WCI - WIND CHILL INDEX
   HX - HEAT INDEX
  VSB - VISIBILITY
$$



USA.gov is the U.S. government's official web portal to all federal, state and local government web resources and services.